Probability
0 0 0 0 0 0 0 0 0 0 0 0 0 0 0 0 0 3 0 0 0 0 0 0 3 0 0 0 0 0 0 0 0 0 0 0 0 0 0 0 0 0 0
0 0 0 0 0 0 0 0 0 0 0 0 0 0 0 0 0 0 0 0 0 0 0 0 0 0 0 0 0 0 0 0 0 0 0 0 0 0 0 0 0 0 0
0 0 0 0 0 0 0 0 0 0 0 0 0 0 0 0 0 0 0 0 0 0 0 0 0 0 0 0 0 0 0 0 0 0 0 0 0 0 0 0 0 0 0
0 0 0 0 0 0 0 0 0 0 0 0 0 0 0 0 0 0 0 0 0 0 0 0 0 0 0 0 0 0 0 0 0 0 0 0 0 0 0 0 0 0 0
0 0 0 0 0 3 0 3 3 0 0 0 0 0 0 0 0 0 0 0 0 0 0 0 0 0 0 0 0 0 0 0 0 0 0 0 0 0 0 0 0 0 0
0 0 0 0 0 3 3 3 3 3 0 0 0 0 0 0 0 0 0 0 0 0 0 0 0 0 0 0 0 0 0 0 0 0 0 0 0 0 0 0 0 0 0
0 0 0 0 0 3 3 3 3 3 0 0 0 0 0 0 0 0 0 0 0 0 0 0 0 0 0 0 0 0 0 0 0 0 0 0 0 0 0 0 0 0 0
0 0 0 0 0 3 3 3 3 3 3 3 3 0 0 0 0 0 0 0 0 0 0 0 0 0 0 0 0 0 0 0 0 0 0 0 0 0 0 0 0 0 0
0 0 0 0 0 0 0 0 3 0 0 0 3 0 0 0 0 0 0 0 0 0 0 0 0 0 0 0 0 0 0 0 0 0 0 0 0 0 0 0 0 0 0
0 0 0 0 0 0 0 0 0 0 0 0 0 0 0 0 0 0 0 0 0 0 0 0 0 0 0 0 0 0 0 0 0 0 0 0 0 0 0 0 0 0 0
0 0 0 0 0 0 0 0 0 0 0 0 0 0 0 0 0 0 0 0 0 0 0 0 0 0 0 0 0 0 0 0 0 0 0 0 0 0 0 0 0 0 0
3 0 0 0 0 0 3 3 0 0 0 0 0 0 0 0 0 0 0 0 0 0 0 0 0 0 0 0 0 0 0 0 0 0 0 0 0 0 0 0 0 0 0
3 3 3 0 0 0 0 3 3 0 0 0 0 0 0 0 0 0 0 0 0 0 0 0 0 0 0 0 0 0 0 0 0 0 0 0 0 0 0 0 0 0 0
3 3 3 3 6 0 0 0 0 0 0 0 0 0 0 0 0 0 0 0 0 0 0 0 0 0 0 0 0 0 0 0 0 0 0 0 0 0 0 0 0 0 0
3 3 3 3 0 0 0 0 0 0 0 0 0 0 0 0 0 0 0 0 0 0 0 0 0 0 0 0 0 0 0 0 0 0 0 0 0 0 0 0 0 0 0
3 3 0 0 0 0 0 0 0 0 0 0 0 0 0 0 0 0 0 0 0 0 0 0 0 0 0 0 0 0 0 0 0 0 0 0 0 0 0 0 0 0 0
0 0 0 0 0 0 0 0 0 0 0 0 0 0 0 0 0 0 0 0 0 0 0 0 0 0 0 0 0 0 0 0 0 0 0 0 0 0 0 0 0 0 0
0 0 0 0 0 0 0 0 0 0 0 3 0 0 0 0 0 0 0 0 0 0 0 0 0 0 0 0 0 0 0 0 0 0 0 0 0 0 0 0 0 0 0
0 0 0 0 0 0 0 0 0 0 0 0 3 0 0 0 0 0 0 0 0 0 0 0 0 0 0 0 0 0 0 0 0 0 0 0 0 0 0 0 0 0 0
0 0 0 0 0 0 0 0 0 0 0 0 0 0 0 0 0 0 0 0 0 0 0 0 0 0 0 0 0 0 0 0 0 0 0 0 0 0 0 0 0 0 0
0 0 0 0 0 0 0 0 0 0 0 0 0 0 0 0 0 0 0 0 0 0 0 0 0 0 0 0 0 0 0 0 0 0 0 0 0 0 0 0 0 0 0
0 0 0 0 0 0 0 0 0 0 0 0 0 0 0 0 0 0 0 0 0 0 0 0 0 0 0 0 0 0 0 0 0 0 0 0 0 0 0 0 0 0 0
0 0 0 0 0 0 0 0 0 0 0 0 0 0 0 0 0 0 0 0 0 0 0 0 0 0 0 0 0 0 0 0 0 0 0 0 0 0 0 0 0 0 0
0 0 0 0 0 0 0 0 0 0 0 0 0 0 0 0 0 0 0 0 0 0 0 0 0 0 0 0 0 0 0 0 0 0 0 0 0 0 0 0 0 0 0
0 0 0 0 0 0 0 0 0 0 0 0 0 0 0 0 0 0 0 0 0 0 0 0 0 0 0 0 0 0 0 0 0 0 0 0 0 0 0 0 0 0 0
0 0 0 0 0 0 0 0 0 0 0 0 0 0 0 0 0 0 0 0 0 0 0 0 0 0 0 0 0 0 0 0 0 0 0 0 0 0 0 0 0 0 0
Height
5861 5863 5864 5865 5867 5868 5869 5870 5870 5871 5872 5872 5873 5873 5873 5874 5874 5874 5874 5873 5873 5873 5873 5872 5872 5871 5871 5870 5869 5868 5868 5867 5866 5865 5864 5863 5862 5861 5860 5859 5858 5856 5855
5859 5861 5862 5864 5865 5866 5867 5868 5869 5870 5871 5871 5872 5872 5873 5873 5873 5873 5873 5873 5873 5873 5872 5872 5871 5871 5870 5869 5869 5868 5867 5866 5865 5864 5863 5861 5860 5859 5858 5857 5856 5854 5853
5857 5858 5860 5861 5863 5864 5865 5867 5868 5869 5869 5870 5870 5871 5871 5872 5872 5872 5872 5872 5872 5872 5871 5871 5870 5870 5869 5868 5868 5867 5866 5865 5864 5863 5861 5860 5858 5857 5856 5855 5853 5852 5851
5854 5856 5858 5859 5860 5862 5863 5865 5866 5867 5868 5868 5869 5869 5870 5870 5870 5870 5871 5871 5871 5870 5870 5870 5869 5868 5868 5867 5866 5865 5864 5863 5862 5861 5859 5858 5857 5855 5854 5852 5851 5850 5848
5851 5853 5855 5857 5858 5860 5861 5863 5864 5865 5866 5866 5867 5867 5868 5868 5869 5869 5869 5869 5869 5868 5868 5868 5867 5866 5866 5865 5864 5863 5862 5861 5860 5859 5857 5856 5855 5853 5851 5850 5848 5847 5845
5849 5850 5852 5854 5855 5857 5858 5860 5861 5862 5863 5864 5865 5865 5866 5866 5866 5866 5867 5867 5866 5866 5866 5865 5865 5864 5864 5863 5862 5861 5860 5859 5858 5856 5855 5854 5852 5850 5849 5847 5845 5843 5841
5846 5847 5849 5850 5852 5854 5855 5857 5858 5859 5861 5861 5862 5862 5863 5863 5864 5864 5864 5864 5864 5864 5863 5863 5862 5862 5861 5860 5859 5858 5857 5856 5855 5854 5852 5851 5849 5847 5845 5843 5841 5839 5837
5842 5844 5845 5847 5848 5850 5852 5853 5855 5856 5857 5858 5859 5859 5860 5860 5860 5860 5861 5861 5860 5860 5860 5860 5859 5859 5858 5857 5856 5855 5854 5853 5852 5850 5849 5847 5845 5843 5841 5839 5837 5834 5832
5839 5840 5842 5843 5845 5847 5848 5849 5851 5852 5853 5854 5855 5855 5856 5857 5857 5857 5857 5857 5857 5857 5857 5856 5855 5855 5854 5853 5852 5851 5850 5849 5848 5846 5845 5843 5841 5839 5837 5835 5832 5829 5827
5835 5837 5838 5840 5841 5843 5844 5845 5847 5848 5849 5850 5851 5852 5852 5853 5853 5853 5853 5853 5853 5853 5853 5852 5851 5851 5850 5849 5848 5847 5846 5844 5843 5842 5840 5838 5836 5834 5832 5829 5826 5824 5821
5832 5833 5834 5836 5837 5839 5840 5841 5843 5844 5845 5846 5847 5847 5848 5848 5849 5849 5849 5849 5849 5848 5848 5847 5847 5846 5845 5844 5843 5842 5841 5839 5838 5836 5834 5833 5830 5828 5826 5823 5820 5817 5814
5828 5829 5830 5831 5833 5834 5836 5837 5838 5839 5840 5842 5842 5843 5843 5844 5844 5844 5844 5844 5844 5844 5843 5843 5842 5841 5840 5839 5838 5837 5835 5834 5832 5831 5829 5826 5824 5822 5819 5816 5813 5810 5806
5823 5825 5826 5827 5829 5830 5831 5832 5834 5835 5836 5837 5838 5838 5839 5839 5839 5839 5839 5839 5839 5838 5838 5837 5836 5836 5835 5834 5832 5831 5830 5828 5826 5825 5822 5820 5817 5814 5811 5808 5805 5802 5798
5819 5820 5822 5823 5824 5825 5827 5828 5829 5830 5831 5832 5833 5833 5834 5834 5834 5834 5834 5834 5833 5833 5832 5831 5831 5830 5829 5827 5826 5825 5823 5822 5820 5817 5815 5813 5810 5807 5804 5800 5797 5793 5790
5815 5816 5817 5819 5820 5821 5822 5823 5824 5825 5826 5827 5828 5828 5828 5828 5828 5828 5828 5828 5827 5827 5826 5825 5824 5823 5822 5821 5819 5818 5816 5814 5812 5810 5807 5805 5801 5798 5795 5791 5788 5784 5780
5810 5811 5813 5814 5815 5816 5817 5818 5819 5820 5821 5821 5822 5822 5822 5822 5822 5822 5822 5822 5821 5820 5820 5819 5817 5816 5815 5813 5812 5810 5808 5806 5804 5801 5798 5796 5792 5789 5785 5782 5778 5774 5770
5805 5806 5808 5809 5810 5811 5812 5812 5813 5814 5815 5815 5816 5816 5816 5816 5816 5815 5815 5815 5814 5813 5813 5811 5810 5808 5807 5805 5803 5802 5800 5797 5795 5792 5789 5786 5782 5779 5775 5771 5767 5763 5759
5799 5800 5802 5803 5804 5805 5806 5807 5807 5808 5809 5809 5809 5809 5809 5809 5809 5808 5808 5807 5807 5806 5805 5803 5802 5800 5798 5797 5795 5793 5791 5788 5785 5782 5779 5776 5772 5768 5764 5760 5756 5752 5747
5793 5794 5795 5796 5798 5799 5799 5800 5801 5802 5802 5802 5802 5802 5802 5802 5801 5801 5800 5800 5799 5798 5796 5795 5793 5792 5790 5788 5786 5784 5781 5779 5776 5772 5769 5765 5761 5757 5753 5749 5745 5740 5735
5787 5788 5789 5790 5791 5792 5793 5793 5794 5795 5795 5795 5795 5795 5795 5794 5794 5793 5793 5792 5791 5790 5788 5786 5784 5783 5781 5779 5777 5774 5772 5769 5766 5762 5759 5755 5751 5746 5742 5738 5733 5728 5723
5780 5781 5783 5783 5784 5785 5786 5787 5787 5788 5788 5788 5788 5788 5787 5787 5786 5785 5785 5784 5783 5781 5780 5778 5776 5774 5772 5770 5767 5765 5762 5759 5756 5752 5748 5744 5740 5735 5731 5726 5721 5716 5710
5773 5775 5776 5777 5777 5778 5779 5780 5780 5780 5781 5781 5781 5780 5780 5779 5778 5777 5776 5775 5774 5772 5771 5769 5767 5765 5763 5760 5758 5755 5752 5749 5745 5741 5737 5733 5728 5724 5719 5714 5709 5704 5698
5766 5767 5768 5769 5770 5771 5772 5772 5773 5773 5773 5773 5773 5772 5772 5771 5770 5769 5768 5767 5765 5764 5762 5760 5758 5755 5753 5750 5748 5745 5741 5738 5734 5730 5726 5722 5717 5712 5707 5702 5697 5691 5685
5759 5760 5761 5762 5763 5764 5764 5765 5765 5765 5765 5765 5765 5764 5763 5763 5762 5760 5759 5758 5756 5755 5753 5750 5748 5746 5743 5740 5737 5734 5730 5727 5722 5719 5714 5710 5705 5700 5695 5690 5684 5678 5672
5752 5753 5754 5755 5755 5756 5757 5757 5757 5757 5757 5757 5756 5756 5755 5754 5753 5752 5750 5748 5747 5745 5743 5740 5738 5735 5733 5730 5726 5723 5719 5715 5711 5707 5702 5697 5693 5687 5682 5676 5670 5664 5658
5745 5746 5747 5747 5748 5748 5749 5749 5749 5749 5749 5748 5748 5747 5746 5745 5744 5743 5741 5739 5737 5735 5733 5730 5727 5725 5722 5719 5715 5711 5707 5703 5699 5694 5689 5684 5679 5674 5668 5662 5657 5650 5644
Wind_Speed
12 12 12 11 11 10 9 8 7 7 6 5 5 4 4 4 4 4 3 3 2 2 2 2 2 3 3 4 4 4 4 4 4 5 6 6 6 6 7 8 9 10 10
13 12 12 12 12 11 10 9 9 8 7 7 6 6 5 5 5 4 4 4 3 4 4 4 3 4 4 4 4 4 5 5 6 6 7 7 7 7 9 9 10 10 11
13 12 12 12 12 12 12 10 10 9 8 8 7 7 7 6 6 6 5 5 5 5 5 5 5 5 5 5 6 6 6 7 7 7 8 8 8 9 10 10 11 12 13
14 14 14 13 13 13 12 12 11 10 10 9 9 8 7 7 7 7 6 6 6 6 6 6 6 7 7 7 8 8 8 9 9 9 10 10 10 10 10 11 12 13 14
15 15 15 15 14 14 13 13 12 11 10 10 10 9 9 8 8 8 8 8 7 7 7 7 8 8 8 8 9 9 9 10 10 11 11 12 12 12 13 13 14 15 16
15 15 15 16 15 15 15 14 13 12 12 11 11 11 11 10 10 10 10 10 9 9 9 9 9 9 9 10 10 10 11 11 11 12 12 13 13 14 14 15 17 18 19
15 15 15 16 16 16 16 15 14 13 13 13 12 12 13 12 12 12 12 11 11 11 11 11 11 11 11 11 12 12 12 12 13 13 14 14 15 15 16 18 18 19 20
14 15 15 16 16 17 17 16 15 14 14 14 14 14 14 14 14 14 14 13 13 13 12 12 12 12 12 13 13 14 14 14 15 15 16 16 17 17 18 19 20 21 22
15 15 15 16 16 16 16 17 16 15 15 15 15 15 15 15 15 15 15 14 14 14 13 13 14 14 15 15 15 15 15 16 17 17 17 18 19 19 20 21 22 23 23
15 16 16 16 17 17 17 17 17 17 16 16 16 16 16 16 16 15 15 15 15 15 15 16 16 16 16 17 17 17 17 18 18 18 19 20 21 21 22 23 23 24 25
16 16 17 17 18 19 18 17 18 18 17 17 17 17 17 16 16 16 16 16 16 16 17 17 17 17 18 18 18 18 19 18 19 20 20 21 22 23 24 25 25 26 28
16 16 16 16 17 18 18 18 17 17 17 17 17 17 17 17 17 16 16 17 17 17 18 19 19 19 19 19 19 19 20 20 21 22 23 24 25 26 26 27 28 29 31
16 16 16 16 18 18 18 19 18 18 18 18 18 17 18 18 18 18 18 18 18 19 19 20 20 20 20 20 20 21 22 22 23 24 25 26 27 28 29 30 31 32 33
16 16 15 16 16 17 19 19 19 20 19 19 18 19 19 19 18 18 19 19 19 20 20 21 21 21 22 22 23 23 24 25 25 26 27 28 29 30 32 32 33 34 35
16 16 16 16 16 17 18 18 18 19 19 20 20 20 20 20 20 20 19 20 20 21 22 22 23 23 24 24 25 26 26 27 28 29 30 31 32 33 34 35 36 36 37
17 17 17 17 17 18 18 18 19 19 20 20 20 20 20 20 21 21 21 22 22 23 23 24 25 25 26 27 28 28 29 29 31 32 33 33 34 35 36 37 37 38 38
19 19 19 19 19 19 19 19 20 20 20 21 21 21 21 21 22 23 24 24 24 24 24 25 26 26 27 28 29 30 31 31 33 34 34 35 36 37 38 38 39 40 40
20 20 20 20 20 20 20 20 20 20 21 21 21 22 22 22 23 24 24 25 25 25 26 26 27 27 28 28 29 30 31 32 33 34 35 36 37 38 38 39 40 41 42
20 20 20 20 21 21 21 21 21 21 21 22 22 23 23 24 24 24 24 25 25 26 27 28 28 28 28 29 30 31 32 32 34 35 35 36 37 38 39 40 41 43 43
21 21 21 21 21 21 21 21 21 21 21 22 22 23 24 24 25 25 26 26 26 27 28 28 28 28 29 29 30 31 32 33 34 35 36 37 38 39 40 41 42 44 44
22 22 21 21 21 21 21 21 21 21 22 22 22 23 24 25 25 25 26 26 27 27 27 28 28 28 28 29 30 32 33 34 35 36 37 38 39 40 42 43 43 44 45
23 23 23 22 22 22 22 22 22 22 22 23 23 23 24 24 25 25 25 26 26 27 28 29 29 29 30 30 31 33 34 36 37 38 39 40 40 41 42 43 44 45 46
22 22 22 22 22 23 23 23 23 23 23 23 24 24 24 25 25 25 26 27 28 28 29 29 30 30 31 32 33 35 36 37 38 39 40 41 42 43 44 45 46 47 48
21 22 22 22 22 22 22 22 23 23 24 24 24 24 24 25 26 27 28 28 29 30 31 31 31 32 33 34 36 37 37 38 39 40 41 42 43 44 45 46 47 48 49
21 21 22 22 22 23 23 23 23 24 24 25 25 25 26 27 28 28 29 29 30 31 32 32 33 34 36 36 38 39 39 40 41 41 42 43 44 45 46 47 48 49 50
21 21 22 23 23 24 24 24 25 25 25 26 27 27 28 29 29 29 30 30 31 31 32 34 35 36 37 38 39 39 41 42 43 43 44 45 46 47 47 48 49 50 50
Wind_Direction
228 229 225 224 224 223 221 219 217 214 213 214 214 218 223 225 228 231 238 234 253 264 278 291 288 285 290 294 299 306 314 318 315 308 308 308 301 296 295 296 299 299 297
228 228 225 225 226 226 224 225 226 226 225 222 225 229 234 237 240 242 245 243 255 270 280 285 289 292 294 294 297 300 311 313 309 305 303 302 300 298 297 296 298 301 301
229 230 225 225 226 226 225 227 228 233 234 231 235 239 242 244 244 248 246 253 264 278 281 285 288 290 293 296 297 298 302 304 306 306 306 302 298 295 293 295 297 300 300
229 230 226 227 226 224 225 229 232 236 234 233 237 241 243 244 245 246 248 256 265 274 278 283 285 286 291 295 295 296 297 299 301 302 304 303 302 298 297 297 299 302 300
230 229 229 228 227 225 228 230 233 234 235 237 239 242 243 246 251 251 252 256 263 273 279 285 288 290 293 296 297 296 297 299 302 302 301 301 300 301 301 302 304 303 303
230 230 231 231 229 229 231 233 235 236 239 243 244 245 246 249 252 256 257 261 264 269 274 280 284 287 292 294 296 296 297 298 299 300 301 302 301 302 302 303 304 305 305
232 232 233 233 232 231 232 236 236 239 244 247 248 251 252 253 255 256 259 264 265 267 271 276 280 284 288 290 292 293 294 295 296 298 298 299 299 299 300 301 302 303 304
235 233 234 233 234 236 237 237 239 242 246 249 251 254 256 256 256 259 261 263 266 269 273 276 280 283 286 289 290 291 292 294 294 294 295 296 297 298 298 300 301 302 303
236 235 235 232 232 235 237 240 242 245 248 249 252 254 256 258 260 261 263 266 268 271 274 276 278 281 282 286 288 288 290 292 293 292 293 294 295 297 299 300 301 302 302
239 238 238 237 236 237 239 242 244 245 247 250 252 254 256 258 260 263 266 267 268 270 272 276 278 279 281 285 285 286 287 289 290 291 292 293 295 296 297 299 301 301 301
244 243 242 244 242 241 242 243 244 246 248 248 251 253 254 256 258 263 265 267 268 270 271 275 277 279 281 283 284 286 287 289 290 291 292 294 295 295 297 298 299 301 302
245 244 246 247 244 242 242 242 244 247 250 251 253 254 254 258 260 263 267 268 271 272 273 275 277 279 281 283 285 285 286 288 290 292 293 294 295 296 296 297 298 300 301
244 245 246 248 247 246 246 246 248 251 253 255 257 258 261 262 263 264 267 269 272 274 275 276 278 279 280 281 282 284 285 287 289 291 294 296 296 297 298 298 299 300 301
246 247 248 249 250 249 248 248 250 252 253 254 258 261 263 264 265 267 269 270 272 273 275 277 279 279 280 281 282 284 287 288 289 290 292 295 295 295 297 298 298 299 300
245 247 250 251 251 251 251 253 255 253 252 254 259 262 264 264 266 268 271 271 272 275 276 276 276 278 280 281 282 283 286 288 289 291 292 294 295 295 296 297 298 298 299
244 247 250 252 253 253 254 255 256 257 256 258 261 263 264 266 267 269 270 270 272 273 274 276 277 279 279 281 282 282 285 288 290 292 292 292 294 295 296 297 297 298 299
246 249 251 253 254 255 256 256 257 259 259 261 263 264 264 267 268 269 270 270 271 273 276 279 279 280 281 282 283 284 286 287 289 291 293 294 294 295 296 297 298 299 300
248 250 252 254 254 255 257 258 258 261 261 263 264 265 266 269 270 271 273 274 275 276 278 279 279 280 282 284 285 285 287 288 290 292 293 295 296 296 296 297 298 299 300
250 252 253 254 255 256 257 259 260 261 264 266 266 268 269 271 271 272 274 275 277 278 279 280 280 281 283 285 286 287 288 290 291 293 295 296 296 297 298 299 299 300 301
250 253 255 254 255 257 258 259 260 262 264 269 270 270 270 271 271 273 275 276 278 280 281 283 283 283 284 286 287 288 290 292 294 295 296 297 298 299 300 300 300 301 301
251 253 255 256 258 259 259 259 260 262 266 271 273 274 274 273 274 276 276 278 280 282 285 286 288 287 286 287 288 290 291 293 294 295 297 298 299 300 301 301 301 301 301
252 252 254 258 258 258 260 260 261 264 267 270 272 274 275 277 278 279 279 281 282 283 285 287 288 289 289 288 290 291 293 294 294 296 298 299 300 301 301 302 302 302 302
251 252 254 256 257 259 260 262 263 265 268 271 274 275 277 280 280 280 280 280 282 283 285 287 289 290 290 290 291 293 294 295 295 296 298 299 300 301 301 302 302 302 302
251 253 254 255 257 260 261 263 266 268 270 273 274 276 277 279 281 282 282 281 283 285 287 288 289 290 290 291 293 295 295 295 296 297 298 299 300 300 301 302 302 303 303
252 254 255 257 260 262 263 265 267 269 272 273 274 275 277 280 282 284 284 284 284 285 287 289 290 290 291 292 293 295 296 296 297 297 298 299 300 300 301 302 302 303 304
257 258 259 261 263 264 266 267 269 271 272 273 273 275 279 281 283 285 287 286 286 286 288 289 291 291 293 293 295 296 297 298 298 298 298 299 299 300 301 302 303 304 305